This demonstration page uses our WeatherBlox Daily Observations layout. Learn more.

Left ArrowRight Arrow

31.31129, -92.44514

Hourly Observations for August 16, 2018

Temp ( °F °C ) Dew Point ( °F °C ) Humidity (%) Winds ( mph kmh ) Pressure ( in mb ) Visibility ( mi km ) Precip ( " mm )
12:53 am 00:53 Clear 78 25.6 74 23.3 87 87 S 5 7 30.00 1016 10 16 0.00 0.00
1:53 am 01:53 Clear 78 25.6 74 23.3 87 87 Calm 30.00 1016 10 16 0.00 0.00
2:53 am 02:53 Clear 76 24.4 74 23.3 94 94 SSE 3 6 30.01 1016 10 16 0.00 0.00
3:53 am 03:53 Clear 75 23.9 73 22.8 94 94 SE 5 7 30.00 1016 9 14 0.00 0.00
4:53 am 04:53 Clear 75 23.9 73 22.8 94 94 Calm 30.01 1016 8 13 0.00 0.00
5:53 am 05:53 Clear 75 23.9 73 22.8 94 94 Calm 30.03 1017 9 14 0.00 0.00
6:53 am 06:53 Sunny with Mist and Fog 74 23.3 73 22.8 97 97 Calm 30.06 1018 5 8 0.00 0.00
7:53 am 07:53 Sunny 77 25 75 23.9 94 94 Calm 30.07 1018 7 11 0.00 0.00
8:53 am 08:53 Sunny 83 28.3 76 24.4 79 79 WSW 6 9 30.08 1019 10 16 0.00 0.00
9:53 am 09:53 Partly Cloudy 87 30.6 76 24.4 70 70 W 9 15 30.08 1019 10 16 0.00 0.00
10:03 am 10:03 Mostly Cloudy 88 31.1 76 24.4 68 68 W 10 17 30.09 1019 10 16 0.00 0.00
10:46 am 10:46 Mostly Cloudy 88 31.1 75 23.9 66 66 WSW 7 11 30.09 1019 10 16 0.00 0.00
10:53 am 10:53 Partly Cloudy 89 31.7 74 23.3 61 61 W 9 15 30.08 1019 10 16 0.00 0.00
11:23 am 11:23 Mostly Cloudy 91 32.8 74 23.3 57 57 W 7 11 30.09 1019 10 16 0.00 0.00
11:53 am 11:53 Partly Cloudy 91 32.8 73 22.8 56 56 SSW 7 11 30.07 1018 10 16 0.00 0.00
12:53 pm 12:53 Mostly Sunny 92 33.3 72 22.2 52 52 VRB 6 9 30.06 1018 10 16 0.00 0.00
1:53 pm 13:53 Partly Cloudy 94 34.4 71 21.7 48 48 Calm 30.04 1017 10 16 0.00 0.00
2:53 pm 14:53 Sunny 95 35 71 21.7 46 46 VRB 3 6 30.02 1017 10 16 0.00 0.00
3:53 pm 15:53 Sunny 96 35.6 69 20.6 41 41 Calm 30.00 1016 10 16 0.00 0.00
4:53 pm 16:53 Sunny 97 36.1 69 20.6 40 40 SW 6 9 29.99 1016 10 16 0.00 0.00
5:53 pm 17:53 Sunny 96 35.6 68 20 40 40 SW 3 6 29.98 1015 10 16 0.00 0.00
6:53 pm 18:53 Sunny 93 33.9 71 21.7 49 49 S 7 11 29.99 1016 10 16 0.00 0.00
7:53 pm 19:53 Clear 87 30.6 74 23.3 65 65 SSE 5 7 30.01 1016 10 16 0.00 0.00
8:53 pm 20:53 Mostly Clear 84 28.9 73 22.8 70 70 SSE 8 13 30.02 1017 10 16 0.00 0.00
9:53 pm 21:53 Clear 82 27.8 72 22.2 72 72 SSE 9 15 30.04 1017 10 16 0.00 0.00
10:53 pm 22:53 Clear 80 26.7 73 22.8 79 79 SSE 8 13 30.06 1018 10 16 0.00 0.00
11:53 pm 23:53 Clear 79 26.1 74 23.3 85 85 SE 7 11 30.08 1019 10 16 0.00 0.00

Powered by AerisWeather